Location: Ash Observatory
(39.7321°N, 75.2004°W)
Time: 05:10:38
(UTC-04:00)

ISS - Pass Details

Date: 21 May 2019
Orbit: 407 x 418 km, 51.6° (Epoch: 24 June)

Event Time Altitude Azimuth Distance (km) Brightness Sun altitude
Rises 23:37:05 0° 304° (WNW) 2,359 0.9 -27.1°
Reaches altitude 10° 23:40:36 10° 343° (NNW) 1,500 0.0 -27.3°
Maximum altitude 23:41:34 11° 359° (N) 1,446 -0.2 -27.4°
Drops below altitude 10° 23:42:32 10° 16° (NNE) 1,501 -0.3 -27.5°
Enters shadow 23:45:21 - 50° (NE) 2,140 0.1 -27.6°
